Back to Top
Banner_Quays_at_Mast_2020.jpeg
previous arrow
next arrow

Port Arrivals Report (AIS)

This report is generated from collected AIS (Automated Identification System) signals from vessels entering port.

IMO MMSI Class Flag Vessel Name Vessel type Nav Status Destination Call Sign Latitude Longitude Speed (kts) Course (T) Draught (m) LOA (m) Beam (m) Timestamp
0 269117190 B CH KAIREOL SAILING. - HBY5761 51.6874 -8.49769 5.5 353.8 0 13 4 2026-08-12 19:17:59
0 250129460 B IE SHARPSHOOTER TANKER. - EI 5069 51.6895 -8.50012 10.3 350.6 0 12 4 2026-08-12 18:30:03
0 250014474 B IE SAMI SAILING. - 51.6883 -8.49986 4.8 338.4 0 10 3 2026-08-12 18:26:26
0 235019224 B GB SPIRIT OF AILSA SAILING. - MRFE9 51.6876 -8.49753 5.8 358.1 0 11 4 2026-08-12 17:58:51
0 250003182 B IE APHRODITE Pleasure craft - EI-PO-4 51.6883 -8.49772 5 346 0 10 3 2026-08-12 17:58:39
0 250005542 B IE T BURKE 2 DREDGING / UNDERWATER Ops. - EIVG3 51.689 -8.49673 10.5 357.5 0 13 4 2026-08-12 15:33:15
0 250013937 B IE TIPSY Pleasure craft - EIA2403 51.6884 -8.49954 4.7 352.5 0 9 3 2026-08-12 15:11:05
0 250014852 B IE CUILEANN Pleasure craft - EIA3318 51.6884 -8.49954 7 351.9 0 10 3 2026-08-12 14:25:11
0 250014182 A IE LADY CATHERINE PASSENGER. - EIA2647 51.6878 -8.49866 9.8 352.8 0 0 0 2026-08-12 13:21:18
0 211266780 B DE GLUECKSBURG SAILING. - DJGD 51.6875 -8.49851 5.4 355.7 0 18 6 2026-08-12 11:09:56
0 232016609 B GB RNLI LIFEBOAT B-909 SAR. - 51.6948 -8.50173 34.5 339.3 0 8 2 2026-08-11 20:10:11
0 250129460 B IE SHARPSHOOTER TANKER. - EI 5069 51.6878 -8.50112 9.5 0.4 0 12 4 2026-08-11 18:38:36
0 228044790 B FR ALINOHE SAILING. - FAH6919 51.6887 -8.49841 6.4 349.4 0 14 4 2026-08-11 17:59:07
0 250014182 A IE LADY CATHERINE PASSENGER. - EIA2647 51.6888 -8.49957 9.1 349.7 0 0 0 2026-08-11 17:57:59
0 250005179 B IE FREYA SAILING. - EI-TY-4 51.6878 -8.50066 8 349.6 0 15 5 2026-08-11 17:57:02
0 235019224 B GB SPIRIT OF AILSA SAILING. - MRFE9 51.6878 -8.4992 6 356.8 0 11 4 2026-08-11 17:31:47
0 250013937 B IE TIPSY Pleasure craft - EIA2403 51.6873 -8.49813 6.4 5.2 0 9 3 2026-08-11 17:02:40
0 250013991 B IE BUMBALASH Pleasure craft - EIA2457 51.6893 -8.4962 9.7 342.4 0 13 4 2026-08-11 16:33:12
0 250014182 A IE LADY CATHERINE PASSENGER. - EIA2647 51.6872 -8.49798 9.9 352.7 0 0 0 2026-08-11 14:10:10
0 235104061 B GB CHARISMA SAILING. - MXWJ6 51.6881 -8.50045 6.1 358.7 0 11 4 2026-08-11 14:08:08